AirNav   Bose Proflight Series 2 Wireless Aviation Headset
 
 255 users online  

4CO2 Owl Canyon Gliderport
Wellington, Colorado, USA

GOING TO WELLINGTON?


FAA INFORMATION EFFECTIVE 07 NOVEMBER 2019

Location

FAA Identifier: 4CO2
Lat/Long: 40-48-16.9380N 104-59-05.9000W
40-48.282300N 104-59.098333W
40.8047050,-104.9849722
(estimated)
Elevation: 5545 ft. / 1690 m (estimated)
Variation: 12E (1985)
From city: 6 miles N of WELLINGTON, CO
Time zone: UTC -7 (UTC -6 during Daylight Saving Time)
Zip code: 80549

Gliderport Operations

Gliderport use: Private use. Permission required prior to landing
Activation date: 11/1974
Control tower: no
ARTCC: DENVER CENTER
FSS: DENVER FLIGHT SERVICE STATION
Attendance: SAT-SUN 0900-1700
Wind indicator: yes
Segmented circle: no

Gliderport Communications

  • COMS AVBL ON FREQ 123.3.

Nearby radio navigation aids

VOR radial/distance  VOR name  Freq  Var
CYSr188/26.2CHEYENNE VORTAC113.1013E
GLLr300/26.7GILL VOR/DME114.2013E

Gliderport Services

Airframe service: NONE
Powerplant service: NONE

Runway Information

Runway 1L/19R

Dimensions: 3000 x 16 ft. / 914 x 5 m
Surface: asphalt/turf
RWY 01L/19R - 2000 FT ASPH; 2000 FT TURF.
RUNWAY 1L  RUNWAY 19R
Traffic pattern: leftleft
Obstructions: fencenone

Runway 1R/19L

Dimensions: 3000 x 24 ft. / 914 x 7 m
Surface: turf
RUNWAY 1R  RUNWAY 19L
Traffic pattern: leftleft
Obstructions: fencenone

Runway 15/33

Dimensions: 2500 x 50 ft. / 762 x 15 m
Surface: turf
RUNWAY 15  RUNWAY 33
Traffic pattern: leftleft
Obstructions: nonefence

Runway 9/27

Dimensions: 1800 x 50 ft. / 549 x 15 m
Surface: turf
RUNWAY 9  RUNWAY 27
Traffic pattern: leftleft

Gliderport Ownership and Management from official FAA records

Ownership: Privately-owned
Owner: COLORADO SOARING ASSN.
4598 HACKAMORE ROAD
WELLINGTON, CO 80549
Phone 970-568-7627
Manager: BOARD OF DIRECTORS
4598 HACKAMORE ROAD
WELLINGTON, CO 80549
Phone 970-568-7627
COLORADO SOARING ASSN.

Gliderport Operational Statistics

Aircraft based on the field: 25
Single engine airplanes: 3
Gliders airplanes: 22
    

Additional Remarks

TFC PAT: GLIDERS REMAIN SOUTH AND WEST OF FIELD. POWERED TFC (AIRPLANES, HELS, ULTRALIGHTS) REMAIN NORTH AND EAST OF FIELD.
ABNDD ROAD RUNNING N/S INTERSECTS DIRT PTN OF RWY 01L/19R N END.
FOR CD CTC DENVER APCH AT 303-342-1916.

Instrument Procedures

There are no published instrument procedures at 4CO2.

Some nearby airports with instrument procedures:

KFNL - Northern Colorado Regional Airport (21 nm S)
KCYS - Cheyenne Regional Airport/Jerry Olson Field (22 nm N)
KGXY - Greeley-Weld County Airport (27 nm SE)
KLMO - Vance Brand Airport (39 nm S)
KLAR - Laramie Regional Airport (44 nm NW)
 
Loc | Ops | Rwys | IFR | FBO | Links
Com | Nav | Svcs | Stats | Notes

AirBoss

 
Area around 4CO2 (Owl Canyon Gliderport)
 
Road maps at: MapQuest Bing Google
 
Aerial photo
No photo
 
Sectional chart

 
Airport distance calculator
Flying to Owl Canyon Gliderport? Find the distance to fly.

From to 4CO2

Sunrise and sunset
Times for 14-Nov-2019
 Local
(UTC-7)
 Zulu
(UTC)
Morning civil twilight06:1813:18
Sunrise06:4713:47
Sunset16:4223:42
Evening civil twilight17:1100:11

Current date and time
Zulu (UTC)  14-Nov-2019 10:09:15
Local (UTC-7)  14-Nov-2019 03:09:15
 
METAR
KFEW 
20nm N 
140959Z 27006KT 5SM BR BKN008 M02/M02 A3028 RMK AO2A SHSNE58 SLP267 $
KFNL 
21nm S 
140956Z AUTO 15004KT 10SM OVC004 02/01 A3030 RMK AO2 UPE39 SLP250 P0000 T00170011 FZRANO
KCYS 
22nm N 
141004Z AUTO 25008KT 7SM SCT009 BKN090 M02/M03 A3025 RMK AO2 T10171028
KGXY 
29nm SE 
140956Z AUTO 25003KT 10SM FEW008 OVC035 02/01 A3031 RMK AO2 RAE17 SLP274 P0000 T00170006 FZRANO
KLMO 
39nm S 
140955Z AUTO 08004KT 10SM UP OVC009 03/01 A3032 RMK AO2 T00310007
TAF
KCYS 
22nm N 
140809Z 1408/1506 25006KT 3SM -SHSN SCT019 OVC050 FM140900 26006KT 6SM -SN BKN050 FM141200 26007KT P6SM FEW150 FM141800 23011KT P6SM FEW250
NOTAMs
Click for the latest NOTAMs
NOTAMs are issued by the DoD/FAA and will open in a separate window not controlled by AirNav.

 

 
 

Would you like to see your business listed on this page?

 If your business provides an interesting product or service to pilots, flight crews, aircraft, or users of the Owl Canyon Gliderport, you should consider listing it here.  To start the listing process, click on the button below
 
Add a business
 

Other Pages about Owl Canyon Gliderport

soarcsa.org
 
Update a link
 
Copyright © AirNav, LLC. All rights reserved. Privacy Policy  Contact